Time,TemperatureF,DewpointF,PressureIn,WindDirection,WindDirectionDegrees,WindSpeedMPH,WindSpeedGustMPH,Humidity,HourlyPrecipIn,Conditions,Clouds,dailyrainin,SoftwareType,DateUTC
2013-03-27 00:00:00,43.6,12.6,29.97,SSE,151,0.0,3.0,28,0.00,,,0.00,Wunderground v.1.15,2013-03-27 06:00:00,
2013-03-27 00:02:00,43.6,12.6,29.97,SSE,150,0.0,3.0,28,0.00,,,0.00,Wunderground v.1.15,2013-03-27 06:02:00,
2013-03-27 00:04:00,43.6,12.6,29.97,SSE,150,0.0,3.0,28,0.00,,,0.00,Wunderground v.1.15,2013-03-27 06:04:00,
2013-03-27 00:08:00,43.6,12.6,29.97,SSE,150,0.0,3.0,28,0.00,,,0.00,Wunderground v.1.15,2013-03-27 06:08:00,
2013-03-27 00:10:00,43.6,11.8,29.97,SSE,150,0.0,3.0,27,0.00,,,0.00,Wunderground v.1.15,2013-03-27 06:10:00,
2013-03-27 00:14:00,43.8,12.8,29.97,SSE,150,0.0,3.0,28,0.00,,,0.00,Wunderground v.1.15,2013-03-27 06:14:00,
2013-03-27 00:18:00,43.6,12.6,29.95,SSE,150,0.0,3.0,28,0.00,,,0.00,Wunderground v.1.15,2013-03-27 06:18:00,
2013-03-27 00:20:00,43.6,12.6,29.95,SSE,150,0.0,3.0,28,0.00,,,0.00,Wunderground v.1.15,2013-03-27 06:20:00,
2013-03-27 00:24:00,43.5,13.3,29.95,SSE,150,0.0,3.0,29,0.00,,,0.00,Wunderground v.1.15,2013-03-27 06:24:00,
2013-03-27 00:26:00,43.5,12.5,29.95,SSE,150,0.0,3.0,28,0.00,,,0.00,Wunderground v.1.15,2013-03-27 06:26:00,
2013-03-27 00:32:00,43.6,12.6,29.95,SSE,150,0.0,1.0,28,0.00,,,0.00,Wunderground v.1.15,2013-03-27 06:32:00,
2013-03-27 00:34:00,43.6,12.6,29.95,SSE,150,0.0,1.0,28,0.00,,,0.00,Wunderground v.1.15,2013-03-27 06:34:00,
2013-03-27 00:36:00,43.6,12.6,29.95,SSE,150,0.0,1.0,28,0.00,,,0.00,Wunderground v.1.15,2013-03-27 06:36:00,
2013-03-27 00:38:00,43.6,13.4,29.95,SSE,150,0.0,1.0,29,0.00,,,0.00,Wunderground v.1.15,2013-03-27 06:38:00,
2013-03-27 00:40:00,43.6,13.4,29.95,SSE,150,0.0,1.0,29,0.00,,,0.00,Wunderground v.1.15,2013-03-27 06:40:00,
2013-03-27 00:46:00,43.3,13.1,29.96,SSE,150,0.0,1.0,29,0.00,,,0.00,Wunderground v.1.15,2013-03-27 06:46:00,
2013-03-27 00:48:00,43.3,13.1,29.96,SSE,150,0.0,1.0,29,0.00,,,0.00,Wunderground v.1.15,2013-03-27 06:48:00,
2013-03-27 00:50:00,43.2,13.0,29.96,SSE,150,0.0,1.0,29,0.00,,,0.00,Wunderground v.1.15,2013-03-27 06:50:00,
2013-03-27 00:52:00,43.1,14.5,29.96,SSE,150,0.0,1.0,31,0.00,,,0.00,Wunderground v.1.15,2013-03-27 06:52:00,
2013-03-27 00:56:00,42.8,14.2,29.96,SSE,150,0.0,1.0,31,0.00,,,0.00,Wunderground v.1.15,2013-03-27 06:56:00,
2013-03-27 01:02:00,42.6,14.0,29.96,SSE,150,0.0,0.0,31,0.00,,,0.00,Wunderground v.1.15,2013-03-27 07:02:00,
2013-03-27 01:06:00,42.5,13.9,29.96,SSE,150,0.0,0.0,31,0.00,,,0.00,Wunderground v.1.15,2013-03-27 07:06:00,
2013-03-27 01:08:00,42.6,14.0,29.96,SSE,150,0.0,0.0,31,0.00,,,0.00,Wunderground v.1.15,2013-03-27 07:08:00,
2013-03-27 01:12:00,42.5,13.9,29.96,SSE,150,0.0,0.0,31,0.00,,,0.00,Wunderground v.1.15,2013-03-27 07:12:00,
2013-03-27 01:14:00,42.5,13.9,29.96,SSE,150,0.0,0.0,31,0.00,,,0.00,Wunderground v.1.15,2013-03-27 07:14:00,
2013-03-27 01:16:00,42.3,13.8,29.92,SSE,150,0.0,0.0,31,0.00,,,0.00,Wunderground v.1.15,2013-03-27 07:16:00,
2013-03-27 01:18:00,42.3,13.8,29.92,SSE,150,0.0,0.0,31,0.00,,,0.00,Wunderground v.1.15,2013-03-27 07:18:00,
2013-03-27 01:20:00,42.3,13.8,29.92,SSE,150,0.0,0.0,31,0.00,,,0.00,Wunderground v.1.15,2013-03-27 07:20:00,
2013-03-27 01:22:00,42.2,14.4,29.92,SSE,150,0.0,0.0,32,0.00,,,0.00,Wunderground v.1.15,2013-03-27 07:22:00,
2013-03-27 01:28:00,41.6,14.6,29.92,SSE,150,0.0,0.0,33,0.00,,,0.00,Wunderground v.1.15,2013-03-27 07:28:00,
2013-03-27 01:30:00,41.5,15.2,29.92,SSE,150,0.0,0.0,34,0.00,,,0.00,Wunderground v.1.15,2013-03-27 07:30:00,
2013-03-27 01:32:00,41.3,14.3,29.92,SSE,150,0.0,0.0,33,0.00,,,0.00,Wunderground v.1.15,2013-03-27 07:32:00,
2013-03-27 01:34:00,41.2,14.9,29.92,SSE,150,0.0,0.0,34,0.00,,,0.00,Wunderground v.1.15,2013-03-27 07:34:00,
2013-03-27 01:36:00,41.1,14.8,29.92,SSE,150,0.0,0.0,34,0.00,,,0.00,Wunderground v.1.15,2013-03-27 07:36:00,
2013-03-27 01:40:00,40.8,15.2,29.92,SSE,150,0.0,0.0,35,0.00,,,0.00,Wunderground v.1.15,2013-03-27 07:40:00,
2013-03-27 01:42:00,40.6,15.0,29.92,SSE,150,0.0,0.0,35,0.00,,,0.00,Wunderground v.1.15,2013-03-27 07:42:00,
2013-03-27 01:44:00,40.5,15.0,29.92,SSE,150,0.0,0.0,35,0.00,,,0.00,Wunderground v.1.15,2013-03-27 07:44:00,
2013-03-27 01:46:00,40.2,15.3,29.94,SSE,151,0.0,0.0,36,0.00,,,0.00,Wunderground v.1.15,2013-03-27 07:46:00,
2013-03-27 01:52:00,39.8,15.6,29.94,SSE,150,0.0,0.0,37,0.00,,,0.00,Wunderground v.1.15,2013-03-27 07:52:00,
2013-03-27 01:54:00,39.6,16.0,29.94,SSE,150,0.0,0.0,38,0.00,,,0.00,Wunderground v.1.15,2013-03-27 07:54:00,
2013-03-27 01:56:00,39.3,16.4,29.94,SSE,150,0.0,0.0,39,0.00,,,0.00,Wunderground v.1.15,2013-03-27 07:56:00,
2013-03-27 02:00:00,38.8,15.9,29.95,SSE,150,0.0,0.0,39,0.00,,,0.00,Wunderground v.1.15,2013-03-27 08:00:00,
2013-03-27 02:02:00,38.8,15.9,29.95,SSE,150,0.0,0.0,39,0.00,,,0.00,Wunderground v.1.15,2013-03-27 08:02:00,
2013-03-27 02:04:00,38.5,16.2,29.95,SSE,150,0.0,0.0,40,0.00,,,0.00,Wunderground v.1.15,2013-03-27 08:04:00,
2013-03-27 02:10:00,38.3,15.5,29.95,SSE,150,0.0,0.0,39,0.00,,,0.00,Wunderground v.1.15,2013-03-27 08:10:00,
2013-03-27 02:14:00,38.5,15.7,29.95,SSE,150,0.0,0.0,39,0.00,,,0.00,Wunderground v.1.15,2013-03-27 08:14:00,
2013-03-27 02:16:00,38.5,16.2,29.93,SSE,150,0.0,0.0,40,0.00,,,0.00,Wunderground v.1.15,2013-03-27 08:16:00,
2013-03-27 02:18:00,38.3,16.1,29.93,SSE,150,0.0,0.0,40,0.00,,,0.00,Wunderground v.1.15,2013-03-27 08:18:00,
2013-03-27 02:22:00,38.2,16.0,29.93,SSE,150,0.0,0.0,40,0.00,,,0.00,Wunderground v.1.15,2013-03-27 08:22:00,
2013-03-27 02:24:00,38.0,15.8,29.93,SSE,150,0.0,0.0,40,0.00,,,0.00,Wunderground v.1.15,2013-03-27 08:24:00,
2013-03-27 02:28:00,37.9,15.7,29.93,SSE,150,0.0,0.0,40,0.00,,,0.00,Wunderground v.1.15,2013-03-27 08:28:00,
2013-03-27 02:30:00,37.8,16.2,29.93,SSE,150,0.0,0.0,41,0.00,,,0.00,Wunderground v.1.15,2013-03-27 08:30:00,
2013-03-27 02:34:00,37.6,16.0,29.93,SSE,150,0.0,0.0,41,0.00,,,0.00,Wunderground v.1.15,2013-03-27 08:34:00,
2013-03-27 02:36:00,37.5,15.9,29.93,SSE,150,0.0,0.0,41,0.00,,,0.00,Wunderground v.1.15,2013-03-27 08:36:00,
2013-03-27 02:40:00,37.2,16.2,29.93,SSE,150,0.0,0.0,42,0.00,,,0.00,Wunderground v.1.15,2013-03-27 08:40:00,
2013-03-27 02:44:00,37.0,16.0,29.93,SSE,150,0.0,0.0,42,0.00,,,0.00,Wunderground v.1.15,2013-03-27 08:44:00,
2013-03-27 02:48:00,37.0,16.5,29.95,SSE,150,0.0,0.0,43,0.00,,,0.00,Wunderground v.1.15,2013-03-27 08:48:00,
2013-03-27 02:50:00,37.2,16.7,29.95,SSE,150,0.0,0.0,43,0.00,,,0.00,Wunderground v.1.15,2013-03-27 08:50:00,
2013-03-27 02:54:00,37.2,16.7,29.95,SSE,150,0.0,0.0,43,0.00,,,0.00,Wunderground v.1.15,2013-03-27 08:54:00,
2013-03-27 02:56:00,37.3,16.8,29.95,SSE,150,0.0,0.0,43,0.00,,,0.00,Wunderground v.1.15,2013-03-27 08:56:00,
2013-03-27 02:58:00,37.3,16.8,29.95,SSE,150,0.0,0.0,43,0.00,,,0.00,Wunderground v.1.15,2013-03-27 08:58:00,
2013-03-27 03:02:00,37.8,16.7,29.93,SSE,150,0.0,2.0,42,0.00,,,0.00,Wunderground v.1.15,2013-03-27 09:02:00,
2013-03-27 03:04:00,38.0,16.9,29.93,SSE,150,0.0,2.0,42,0.00,,,0.00,Wunderground v.1.15,2013-03-27 09:04:00,
2013-03-27 03:06:00,38.0,16.9,29.93,SSE,150,0.0,2.0,42,0.00,,,0.00,Wunderground v.1.15,2013-03-27 09:06:00,
2013-03-27 03:10:00,38.2,17.1,29.93,SSE,150,0.0,0.0,42,0.00,,,0.00,Wunderground v.1.15,2013-03-27 09:10:00,
2013-03-27 03:12:00,38.2,17.1,29.93,SSE,150,0.0,0.0,42,0.00,,,0.00,Wunderground v.1.15,2013-03-27 09:12:00,
2013-03-27 03:14:00,38.2,17.1,29.93,SSE,150,0.0,2.0,42,0.00,,,0.00,Wunderground v.1.15,2013-03-27 09:14:00,
2013-03-27 03:18:00,38.5,17.4,29.94,SSE,150,0.0,2.0,42,0.00,,,0.00,Wunderground v.1.15,2013-03-27 09:18:00,
2013-03-27 03:20:00,38.5,17.9,29.94,SSE,150,0.0,0.0,43,0.00,,,0.00,Wunderground v.1.15,2013-03-27 09:20:00,
2013-03-27 03:22:00,38.2,18.7,29.94,SSE,150,0.0,0.0,45,0.00,,,0.00,Wunderground v.1.15,2013-03-27 09:22:00,
2013-03-27 03:24:00,38.2,18.7,29.94,SSE,150,0.0,2.0,45,0.00,,,0.00,Wunderground v.1.15,2013-03-27 09:24:00,
2013-03-27 03:28:00,37.9,18.4,29.94,SSE,150,0.0,2.0,45,0.00,,,0.00,Wunderground v.1.15,2013-03-27 09:28:00,
2013-03-27 03:30:00,37.9,18.4,29.94,SSE,150,0.0,2.0,45,0.00,,,0.00,Wunderground v.1.15,2013-03-27 09:30:00,
2013-03-27 03:32:00,37.8,18.3,29.94,SSE,150,0.0,2.0,45,0.00,,,0.00,Wunderground v.1.15,2013-03-27 09:32:00,
2013-03-27 03:34:00,37.8,18.8,29.94,SSE,150,0.0,2.0,46,0.00,,,0.00,Wunderground v.1.15,2013-03-27 09:34:00,
2013-03-27 03:36:00,37.8,18.8,29.94,SSE,150,0.0,2.0,46,0.00,,,0.00,Wunderground v.1.15,2013-03-27 09:36:00,
2013-03-27 03:40:00,37.8,18.8,29.94,SSE,150,0.0,2.0,46,0.00,,,0.00,Wunderground v.1.15,2013-03-27 09:40:00,
2013-03-27 03:42:00,37.8,18.8,29.94,SSE,150,0.0,2.0,46,0.00,,,0.00,Wunderground v.1.15,2013-03-27 09:42:00,
2013-03-27 03:44:00,37.8,18.8,29.94,SSE,150,0.0,2.0,46,0.00,,,0.00,Wunderground v.1.15,2013-03-27 09:44:00,
2013-03-27 03:48:00,37.6,18.7,29.95,SSE,150,0.0,2.0,46,0.00,,,0.00,Wunderground v.1.15,2013-03-27 09:48:00,
2013-03-27 03:50:00,37.6,18.7,29.95,SSE,150,0.0,2.0,46,0.00,,,0.00,Wunderground v.1.15,2013-03-27 09:50:00,
2013-03-27 03:54:00,37.6,18.7,29.95,SSE,150,0.0,2.0,46,0.00,,,0.00,Wunderground v.1.15,2013-03-27 09:54:00,
2013-03-27 03:56:00,37.6,18.7,29.95,SSE,150,0.0,2.0,46,0.00,,,0.00,Wunderground v.1.15,2013-03-27 09:56:00,
2013-03-27 03:58:00,37.8,18.8,29.95,SSE,150,0.0,2.0,46,0.00,,,0.00,Wunderground v.1.15,2013-03-27 09:58:00,
2013-03-27 04:00:00,37.6,18.7,29.95,SSE,150,0.0,2.0,46,0.00,,,0.00,Wunderground v.1.15,2013-03-27 10:00:00,
2013-03-27 04:04:00,37.3,18.4,29.95,SSE,150,0.0,2.0,46,0.00,,,0.00,Wunderground v.1.15,2013-03-27 10:04:00,
2013-03-27 04:08:00,37.2,18.3,29.95,SSE,150,0.0,2.0,46,0.00,,,0.00,Wunderground v.1.15,2013-03-27 10:08:00,
2013-03-27 04:12:00,37.0,18.1,29.95,SSE,150,0.0,2.0,46,0.00,,,0.00,Wunderground v.1.15,2013-03-27 10:12:00,
2013-03-27 04:16:00,36.8,18.4,29.97,SSE,150,0.0,2.0,47,0.00,,,0.00,Wunderground v.1.15,2013-03-27 10:16:00,
2013-03-27 04:22:00,36.3,18.0,29.97,SSE,150,0.0,2.0,47,0.00,,,0.00,Wunderground v.1.15,2013-03-27 10:22:00,
2013-03-27 04:24:00,36.2,18.4,29.97,SSE,150,0.0,2.0,48,0.00,,,0.00,Wunderground v.1.15,2013-03-27 10:24:00,
2013-03-27 04:28:00,36.0,17.7,29.97,SSE,150,0.0,2.0,47,0.00,,,0.00,Wunderground v.1.15,2013-03-27 10:28:00,
2013-03-27 04:30:00,35.9,18.1,29.97,SSE,150,0.0,0.0,48,0.00,,,0.00,Wunderground v.1.15,2013-03-27 10:30:00,
2013-03-27 04:34:00,35.8,18.0,29.97,SSE,150,0.0,0.0,48,0.00,,,0.00,Wunderground v.1.15,2013-03-27 10:34:00,
2013-03-27 04:38:00,35.6,17.8,29.97,SSE,150,0.0,1.0,48,0.00,,,0.00,Wunderground v.1.15,2013-03-27 10:38:00,
2013-03-27 04:40:00,35.5,17.7,29.97,SSE,150,0.0,0.0,48,0.00,,,0.00,Wunderground v.1.15,2013-03-27 10:40:00,
2013-03-27 04:48:00,35.6,17.8,29.97,SSE,150,0.0,1.0,48,0.00,,,0.00,Wunderground v.1.15,2013-03-27 10:48:00,
2013-03-27 04:50:00,35.5,18.2,29.97,SSE,150,0.0,0.0,49,0.00,,,0.00,Wunderground v.1.15,2013-03-27 10:50:00,
2013-03-27 04:52:00,35.5,18.2,29.97,SSE,150,0.0,0.0,49,0.00,,,0.00,Wunderground v.1.15,2013-03-27 10:52:00,
2013-03-27 04:54:00,35.6,17.8,29.97,SSE,150,0.0,0.0,48,0.00,,,0.00,Wunderground v.1.15,2013-03-27 10:54:00,
2013-03-27 04:58:00,36.0,18.2,29.97,SSE,150,0.0,0.0,48,0.00,,,0.00,Wunderground v.1.15,2013-03-27 10:58:00,
2013-03-27 05:00:00,36.0,18.2,29.97,SSE,150,0.0,2.0,48,0.00,,,0.00,Wunderground v.1.15,2013-03-27 11:00:00,
2013-03-27 05:02:00,36.0,18.2,29.98,SSE,150,0.0,2.0,48,0.00,,,0.00,Wunderground v.1.15,2013-03-27 11:02:00,
2013-03-27 05:08:00,35.8,18.0,29.98,SSE,150,0.0,2.0,48,0.00,,,0.00,Wunderground v.1.15,2013-03-27 11:08:00,
2013-03-27 05:12:00,35.5,17.7,29.98,SSE,150,0.0,2.0,48,0.00,,,0.00,Wunderground v.1.15,2013-03-27 11:12:00,
2013-03-27 05:14:00,35.5,17.7,29.98,SSE,150,0.0,2.0,48,0.00,,,0.00,Wunderground v.1.15,2013-03-27 11:14:00,
2013-03-27 05:18:00,35.6,17.3,30.00,SSE,150,0.0,2.0,47,0.00,,,0.00,Wunderground v.1.15,2013-03-27 11:18:00,
2013-03-27 05:20:00,35.9,17.6,30.00,SSE,150,0.0,2.0,47,0.00,,,0.00,Wunderground v.1.15,2013-03-27 11:20:00,
2013-03-27 05:24:00,35.9,17.6,30.00,SSE,150,0.0,2.0,47,0.00,,,0.00,Wunderground v.1.15,2013-03-27 11:24:00,
2013-03-27 05:26:00,35.8,17.5,30.00,SSE,150,0.0,2.0,47,0.00,,,0.00,Wunderground v.1.15,2013-03-27 11:26:00,
2013-03-27 05:30:00,35.3,17.5,30.00,SSE,150,0.0,2.0,48,0.00,,,0.00,Wunderground v.1.15,2013-03-27 11:30:00,
2013-03-27 05:32:00,35.2,17.4,30.00,SSE,150,0.0,2.0,48,0.00,,,0.00,Wunderground v.1.15,2013-03-27 11:32:00,
2013-03-27 05:34:00,34.9,17.7,30.00,SSE,150,0.0,2.0,49,0.00,,,0.00,Wunderground v.1.15,2013-03-27 11:34:00,
2013-03-27 05:38:00,34.3,17.6,30.00,SSE,150,0.0,2.0,50,0.00,,,0.00,Wunderground v.1.15,2013-03-27 11:38:00,
2013-03-27 05:40:00,34.1,17.4,30.00,SSE,150,0.0,2.0,50,0.00,,,0.00,Wunderground v.1.15,2013-03-27 11:40:00,
2013-03-27 05:46:00,33.8,17.1,30.02,SSE,150,0.0,2.0,50,0.00,,,0.00,Wunderground v.1.15,2013-03-27 11:46:00,
2013-03-27 05:48:00,33.7,17.0,30.02,SSE,150,0.0,2.0,50,0.00,,,0.00,Wunderground v.1.15,2013-03-27 11:48:00,
2013-03-27 05:50:00,33.5,17.3,30.02,SSE,150,0.0,2.0,51,0.00,,,0.00,Wunderground v.1.15,2013-03-27 11:50:00,
2013-03-27 05:52:00,33.4,17.2,30.02,SSE,150,0.0,2.0,51,0.00,,,0.00,Wunderground v.1.15,2013-03-27 11:52:00,
2013-03-27 05:54:00,33.2,17.0,30.02,SSE,150,0.0,2.0,51,0.00,,,0.00,Wunderground v.1.15,2013-03-27 11:54:00,
2013-03-27 06:00:00,32.4,17.2,30.02,SSE,150,0.0,0.0,53,0.00,,,0.00,Wunderground v.1.15,2013-03-27 12:00:00,
2013-03-27 06:02:00,32.2,17.4,30.04,SSE,150,0.0,0.0,54,0.00,,,0.00,Wunderground v.1.15,2013-03-27 12:02:00,
2013-03-27 06:04:00,31.9,17.5,30.04,SSE,150,0.0,0.0,55,0.00,,,0.00,Wunderground v.1.15,2013-03-27 12:04:00,
2013-03-27 06:08:00,31.5,17.6,30.04,SSE,150,0.0,0.0,56,0.00,,,0.00,Wunderground v.1.15,2013-03-27 12:08:00,
2013-03-27 06:10:00,31.3,17.4,30.04,SSE,150,0.0,0.0,56,0.00,,,0.00,Wunderground v.1.15,2013-03-27 12:10:00,
2013-03-27 06:16:00,30.9,17.8,30.06,SSE,150,0.0,0.0,58,0.00,,,0.00,Wunderground v.1.15,2013-03-27 12:16:00,
2013-03-27 06:18:00,30.7,17.7,30.06,SSE,150,0.0,0.0,58,0.00,,,0.00,Wunderground v.1.15,2013-03-27 12:18:00,
2013-03-27 06:22:00,30.7,17.7,30.06,SSE,150,0.0,0.0,58,0.00,,,0.00,Wunderground v.1.15,2013-03-27 12:22:00,
2013-03-27 06:24:00,30.7,17.3,30.06,SSE,150,0.0,0.0,57,0.00,,,0.00,Wunderground v.1.15,2013-03-27 12:24:00,
2013-03-27 06:28:00,30.9,17.0,30.06,SSE,150,0.0,0.0,56,0.00,,,0.00,Wunderground v.1.15,2013-03-27 12:28:00,
2013-03-27 06:30:00,30.9,17.0,30.06,SSE,150,0.0,0.0,56,0.00,,,0.00,Wunderground v.1.15,2013-03-27 12:30:00,
2013-03-27 06:34:00,30.9,16.6,30.06,SSE,150,0.0,0.0,55,0.00,,,0.00,Wunderground v.1.15,2013-03-27 12:34:00,
2013-03-27 06:38:00,30.9,16.6,30.06,SSE,150,0.0,0.0,55,0.00,,,0.00,Wunderground v.1.15,2013-03-27 12:38:00,
2013-03-27 06:40:00,30.7,16.4,30.06,SSE,150,0.0,0.0,55,0.00,,,0.00,Wunderground v.1.15,2013-03-27 12:40:00,
2013-03-27 06:44:00,30.6,16.3,30.06,SSE,150,0.0,0.0,55,0.00,,,0.00,Wunderground v.1.15,2013-03-27 12:44:00,
2013-03-27 06:46:00,30.6,16.3,30.07,SSE,150,0.0,0.0,55,0.00,,,0.00,Wunderground v.1.15,2013-03-27 12:46:00,
2013-03-27 06:48:00,30.4,16.6,30.07,SSE,150,0.0,0.0,56,0.00,,,0.00,Wunderground v.1.15,2013-03-27 12:48:00,
2013-03-27 06:50:00,30.3,16.5,30.07,SSE,150,0.0,0.0,56,0.00,,,0.00,Wunderground v.1.15,2013-03-27 12:50:00,
2013-03-27 06:52:00,30.1,16.7,30.07,SSE,150,0.0,0.0,57,0.00,,,0.00,Wunderground v.1.15,2013-03-27 12:52:00,
2013-03-27 06:56:00,30.0,16.6,30.07,SSE,150,0.0,0.0,57,0.00,,,0.00,Wunderground v.1.15,2013-03-27 12:56:00,
2013-03-27 06:58:00,30.0,16.6,30.07,SSE,150,0.0,0.0,57,0.00,,,0.00,Wunderground v.1.15,2013-03-27 12:58:00,
2013-03-27 07:00:00,29.8,16.4,30.07,SSE,150,0.0,2.0,57,0.00,,,0.00,Wunderground v.1.15,2013-03-27 13:00:00,
2013-03-27 07:02:00,29.8,16.4,30.08,SSE,150,0.0,2.0,57,0.00,,,0.00,Wunderground v.1.15,2013-03-27 13:02:00,
2013-03-27 07:04:00,29.7,16.3,30.08,SSE,150,0.0,2.0,57,0.00,,,0.00,Wunderground v.1.15,2013-03-27 13:04:00,
2013-03-27 07:08:00,29.5,16.1,30.08,SSE,150,0.0,2.0,57,0.00,,,0.00,Wunderground v.1.15,2013-03-27 13:08:00,
2013-03-27 07:10:00,29.4,16.4,30.08,SSE,150,0.0,2.0,58,0.00,,,0.00,Wunderground v.1.15,2013-03-27 13:10:00,
2013-03-27 07:18:00,29.3,16.3,30.13,SSE,150,0.0,2.0,58,0.00,,,0.00,Wunderground v.1.15,2013-03-27 13:18:00,
2013-03-27 07:20:00,29.3,16.3,30.13,SSE,150,0.0,2.0,58,0.00,,,0.00,Wunderground v.1.15,2013-03-27 13:20:00,
2013-03-27 07:24:00,29.3,16.3,30.13,SSE,150,0.0,2.0,58,0.00,,,0.00,Wunderground v.1.15,2013-03-27 13:24:00,
2013-03-27 07:26:00,29.4,16.4,30.13,SSE,150,0.0,2.0,58,0.00,,,0.00,Wunderground v.1.15,2013-03-27 13:26:00,
2013-03-27 07:28:00,29.5,16.5,30.13,SSE,150,0.0,2.0,58,0.00,,,0.00,Wunderground v.1.15,2013-03-27 13:28:00,
2013-03-27 07:30:00,29.7,16.7,30.13,SSE,150,0.0,0.0,58,0.00,,,0.00,Wunderground v.1.15,2013-03-27 13:30:00,
2013-03-27 07:34:00,30.1,17.1,30.13,SSE,150,0.0,0.0,58,0.00,,,0.00,Wunderground v.1.15,2013-03-27 13:34:00,
2013-03-27 07:40:00,30.6,16.7,30.13,SSE,151,0.0,0.0,56,0.00,,,0.00,Wunderground v.1.15,2013-03-27 13:40:00,
2013-03-27 07:42:00,30.6,16.7,30.13,SSE,150,0.0,0.0,56,0.00,,,0.00,Wunderground v.1.15,2013-03-27 13:42:00,
2013-03-27 07:44:00,30.7,16.8,30.13,SSE,151,0.0,0.0,56,0.00,,,0.00,Wunderground v.1.15,2013-03-27 13:44:00,
2013-03-27 07:50:00,31.3,17.4,30.13,SSE,150,0.0,0.0,56,0.00,,,0.00,Wunderground v.1.15,2013-03-27 13:50:00,
2013-03-27 07:54:00,32.1,17.7,30.13,SSE,150,0.0,0.0,55,0.00,,,0.00,Wunderground v.1.15,2013-03-27 13:54:00,
2013-03-27 07:56:00,32.5,17.7,30.13,SSE,150,0.0,0.0,54,0.00,,,0.00,Wunderground v.1.15,2013-03-27 13:56:00,
2013-03-27 08:00:00,33.5,18.2,30.12,SSE,150,0.0,0.0,53,0.00,,,0.00,Wunderground v.1.15,2013-03-27 14:00:00,
2013-03-27 08:02:00,33.8,18.0,30.12,SSE,150,0.0,0.0,52,0.00,,,0.00,Wunderground v.1.15,2013-03-27 14:02:00,
2013-03-27 08:08:00,35.0,17.7,30.12,SSE,150,0.0,0.0,49,0.00,,,0.00,Wunderground v.1.15,2013-03-27 14:08:00,
2013-03-27 08:10:00,35.5,18.2,30.12,SSE,150,0.0,1.0,49,0.00,,,0.00,Wunderground v.1.15,2013-03-27 14:10:00,
2013-03-27 08:12:00,35.9,17.6,30.12,SSE,150,0.0,1.0,47,0.00,,,0.00,Wunderground v.1.15,2013-03-27 14:12:00,
2013-03-27 08:18:00,37.2,18.3,30.12,SSE,151,0.0,1.0,46,0.00,,,0.00,Wunderground v.1.15,2013-03-27 14:18:00,
2013-03-27 08:20:00,37.9,18.4,30.12,SSE,150,0.0,0.0,45,0.00,,,0.00,Wunderground v.1.15,2013-03-27 14:20:00,
2013-03-27 08:24:00,38.9,18.8,30.12,SSE,150,0.0,0.0,44,0.00,,,0.00,Wunderground v.1.15,2013-03-27 14:24:00,
2013-03-27 08:30:00,39.9,19.2,30.12,SSE,150,0.0,2.0,43,0.00,,,0.00,Wunderground v.1.15,2013-03-27 14:30:00,
2013-03-27 08:32:00,39.9,18.6,30.11,SSE,151,0.0,2.0,42,0.00,,,0.00,Wunderground v.1.15,2013-03-27 14:32:00,
2013-03-27 08:38:00,40.8,18.9,30.11,SSE,150,0.0,2.0,41,0.00,,,0.00,Wunderground v.1.15,2013-03-27 14:38:00,
2013-03-27 08:40:00,41.3,18.8,30.11,SSE,151,0.0,2.0,40,0.00,,,0.00,Wunderground v.1.15,2013-03-27 14:40:00,
2013-03-27 08:44:00,42.8,18.3,30.11,SSE,150,0.0,2.0,37,0.00,,,0.00,Wunderground v.1.15,2013-03-27 14:44:00,
2013-03-27 08:50:00,44.5,17.8,30.08,SSE,150,0.0,2.0,34,0.00,,,0.00,Wunderground v.1.15,2013-03-27 14:50:00,
2013-03-27 08:54:00,45.4,17.9,30.08,SSE,150,0.0,2.0,33,0.00,,,0.00,Wunderground v.1.15,2013-03-27 14:54:00,
2013-03-27 08:58:00,46.0,18.5,30.08,SSE,151,0.0,2.0,33,0.00,,,0.00,Wunderground v.1.15,2013-03-27 14:58:00,
2013-03-27 09:00:00,46.1,18.6,30.08,SSE,151,0.0,0.0,33,0.00,,,0.00,Wunderground v.1.15,2013-03-27 15:00:00,
2013-03-27 09:02:00,46.2,18.6,30.07,SSE,150,0.0,0.0,33,0.00,,,0.00,Wunderground v.1.15,2013-03-27 15:02:00,
2013-03-27 09:04:00,46.4,19.5,30.07,SSE,150,0.0,0.0,34,0.00,,,0.00,Wunderground v.1.15,2013-03-27 15:04:00,
2013-03-27 09:06:00,46.5,17.4,30.07,SSE,151,0.0,1.0,31,0.00,,,0.00,Wunderground v.1.15,2013-03-27 15:06:00,
2013-03-27 09:08:00,46.5,18.2,30.07,SSE,150,0.0,1.0,32,0.00,,,0.00,Wunderground v.1.15,2013-03-27 15:08:00,
2013-03-27 09:12:00,47.0,17.9,30.07,SSE,151,0.0,0.0,31,0.00,,,0.00,Wunderground v.1.15,2013-03-27 15:12:00,
2013-03-27 09:14:00,47.4,17.5,30.07,SSE,150,1.0,1.0,30,0.00,,,0.00,Wunderground v.1.15,2013-03-27 15:14:00,
2013-03-27 09:16:00,47.7,16.9,30.06,SSE,150,1.0,1.0,29,0.00,,,0.00,Wunderground v.1.15,2013-03-27 15:16:00,
2013-03-27 09:18:00,48.2,16.6,30.06,SSE,151,0.0,1.0,28,0.00,,,0.00,Wunderground v.1.15,2013-03-27 15:18:00,
2013-03-27 09:20:00,48.3,16.7,30.06,SSE,150,0.0,0.0,28,0.00,,,0.00,Wunderground v.1.15,2013-03-27 15:20:00,
2013-03-27 09:28:00,49.2,17.4,30.06,SSE,150,0.0,0.0,28,0.00,,,0.00,Wunderground v.1.15,2013-03-27 15:28:00,
2013-03-27 09:30:00,49.6,16.9,30.06,SSE,150,0.0,2.0,27,0.00,,,0.00,Wunderground v.1.15,2013-03-27 15:30:00,
2013-03-27 09:34:00,50.2,18.3,30.05,SSE,150,0.0,2.0,28,0.00,,,0.00,Wunderground v.1.15,2013-03-27 15:34:00,
2013-03-27 09:36:00,50.4,17.6,30.05,SSE,150,0.0,2.0,27,0.00,,,0.00,Wunderground v.1.15,2013-03-27 15:36:00,
2013-03-27 09:40:00,50.7,18.7,30.05,SSE,150,0.0,2.0,28,0.00,,,0.00,Wunderground v.1.15,2013-03-27 15:40:00,
2013-03-27 09:42:00,50.7,17.9,30.05,SSE,150,0.0,2.0,27,0.00,,,0.00,Wunderground v.1.15,2013-03-27 15:42:00,
2013-03-27 09:46:00,50.7,17.0,30.04,SSE,151,0.0,2.0,26,0.00,,,0.00,Wunderground v.1.15,2013-03-27 15:46:00,
2013-03-27 09:48:00,50.7,17.0,30.04,SSE,150,0.0,2.0,26,0.00,,,0.00,Wunderground v.1.15,2013-03-27 15:48:00,
2013-03-27 09:54:00,51.0,17.3,30.04,SSE,151,0.0,2.0,26,0.00,,,0.00,Wunderground v.1.15,2013-03-27 15:54:00,
2013-03-27 09:58:00,51.1,18.2,30.04,SSE,150,0.0,2.0,27,0.00,,,0.00,Wunderground v.1.15,2013-03-27 15:58:00,
2013-03-27 10:02:00,51.3,18.4,30.04,SSE,151,1.0,3.0,27,0.00,,,0.00,Wunderground v.1.15,2013-03-27 16:02:00,
2013-03-27 10:04:00,51.6,17.8,30.04,SSE,150,1.0,3.0,26,0.00,,,0.00,Wunderground v.1.15,2013-03-27 16:04:00,
2013-03-27 10:06:00,51.7,17.9,30.04,SSE,150,0.0,3.0,26,0.00,,,0.00,Wunderground v.1.15,2013-03-27 16:06:00,
2013-03-27 10:08:00,51.7,17.0,30.04,SSE,150,0.0,3.0,25,0.00,,,0.00,Wunderground v.1.15,2013-03-27 16:08:00,
2013-03-27 10:10:00,51.9,18.0,30.04,SSE,151,0.0,3.0,26,0.00,,,0.00,Wunderground v.1.15,2013-03-27 16:10:00,
2013-03-27 10:12:00,52.0,18.1,30.04,SSE,153,0.0,3.0,26,0.00,,,0.00,Wunderground v.1.15,2013-03-27 16:12:00,
2013-03-27 10:14:00,51.9,18.0,30.04,SSE,153,1.0,3.0,26,0.00,,,0.00,Wunderground v.1.15,2013-03-27 16:14:00,
2013-03-27 10:18:00,51.6,17.8,30.04,WSW,240,1.0,3.0,26,0.00,,,0.00,Wunderground v.1.15,2013-03-27 16:18:00,
2013-03-27 10:20:00,51.6,17.8,30.04,WSW,241,1.0,1.0,26,0.00,,,0.00,Wunderground v.1.15,2013-03-27 16:20:00,
2013-03-27 10:22:00,51.7,18.7,30.04,WSW,247,1.0,2.0,27,0.00,,,0.00,Wunderground v.1.15,2013-03-27 16:22:00,
2013-03-27 10:26:00,51.9,17.1,30.04,West,259,1.0,3.0,25,0.00,,,0.00,Wunderground v.1.15,2013-03-27 16:26:00,
2013-03-27 10:30:00,52.2,17.4,30.04,West,263,1.0,4.0,25,0.00,,,0.00,Wunderground v.1.15,2013-03-27 16:30:00,
2013-03-27 10:34:00,52.3,16.5,30.04,West,263,1.0,4.0,24,0.00,,,0.00,Wunderground v.1.15,2013-03-27 16:34:00,
2013-03-27 10:36:00,52.5,17.6,30.04,West,263,1.0,4.0,25,0.00,,,0.00,Wunderground v.1.15,2013-03-27 16:36:00,
2013-03-27 10:42:00,52.9,17.0,30.04,West,263,1.0,4.0,24,0.00,,,0.00,Wunderground v.1.15,2013-03-27 16:42:00,
2013-03-27 10:44:00,52.9,17.0,30.04,West,263,1.0,4.0,24,0.00,,,0.00,Wunderground v.1.15,2013-03-27 16:44:00,
2013-03-27 10:46:00,52.9,17.0,30.04,West,265,1.0,4.0,24,0.00,,,0.00,Wunderground v.1.15,2013-03-27 16:46:00,
2013-03-27 10:50:00,53.1,17.2,30.04,West,265,1.0,1.0,24,0.00,,,0.00,Wunderground v.1.15,2013-03-27 16:50:00,
2013-03-27 10:52:00,53.3,16.4,30.04,West,265,1.0,2.0,23,0.00,,,0.00,Wunderground v.1.15,2013-03-27 16:52:00,
2013-03-27 10:56:00,53.8,16.8,30.04,West,265,0.0,4.0,23,0.00,,,0.00,Wunderground v.1.15,2013-03-27 16:56:00,
2013-03-27 10:58:00,54.1,17.1,30.04,West,273,1.0,4.0,23,0.00,,,0.00,Wunderground v.1.15,2013-03-27 16:58:00,
2013-03-27 11:02:00,54.5,16.4,30.03,West,273,1.0,4.0,22,0.00,,,0.00,Wunderground v.1.15,2013-03-27 17:02:00,
2013-03-27 11:04:00,54.8,16.6,30.03,West,273,1.0,4.0,22,0.00,,,0.00,Wunderground v.1.15,2013-03-27 17:04:00,
2013-03-27 11:06:00,55.3,16.0,30.03,West,273,1.0,4.0,21,0.00,,,0.00,Wunderground v.1.15,2013-03-27 17:06:00,
2013-03-27 11:10:00,55.9,16.5,30.03,West,273,1.0,4.0,21,0.00,,,0.00,Wunderground v.1.15,2013-03-27 17:10:00,
2013-03-27 11:12:00,56.0,16.6,30.03,West,273,1.0,4.0,21,0.00,,,0.00,Wunderground v.1.15,2013-03-27 17:12:00,
2013-03-27 11:14:00,56.2,16.7,30.03,NNE,19,1.0,4.0,21,0.00,,,0.00,Wunderground v.1.15,2013-03-27 17:14:00,
2013-03-27 11:18:00,56.2,16.7,30.02,NNE,22,1.0,4.0,21,0.00,,,0.00,Wunderground v.1.15,2013-03-27 17:18:00,
2013-03-27 11:20:00,56.2,16.7,30.02,North,5,2.0,4.0,21,0.00,,,0.00,Wunderground v.1.15,2013-03-27 17:20:00,
2013-03-27 11:22:00,56.2,15.6,30.02,NNE,28,2.0,4.0,20,0.00,,,0.00,Wunderground v.1.15,2013-03-27 17:22:00,
2013-03-27 11:26:00,55.9,14.2,30.02,ENE,73,2.0,4.0,19,0.00,,,0.00,Wunderground v.1.15,2013-03-27 17:26:00,
2013-03-27 11:32:00,56.7,17.1,30.02,NE,38,1.0,7.0,21,0.00,,,0.00,Wunderground v.1.15,2013-03-27 17:32:00,
2013-03-27 11:34:00,57.0,16.3,30.02,NNE,22,1.0,7.0,20,0.00,,,0.00,Wunderground v.1.15,2013-03-27 17:34:00,
2013-03-27 11:38:00,57.3,15.3,30.02,North,5,2.0,7.0,19,0.00,,,0.00,Wunderground v.1.15,2013-03-27 17:38:00,
2013-03-27 11:40:00,57.5,16.7,30.02,NNE,19,1.0,7.0,20,0.00,,,0.00,Wunderground v.1.15,2013-03-27 17:40:00,
2013-03-27 11:42:00,57.5,13.0,30.02,North,5,2.0,7.0,17,0.00,,,0.00,Wunderground v.1.15,2013-03-27 17:42:00,
2013-03-27 11:44:00,57.3,14.1,30.02,North,5,3.0,7.0,18,0.00,,,0.00,Wunderground v.1.15,2013-03-27 17:44:00,
2013-03-27 11:48:00,57.5,13.0,30.02,NNE,29,2.0,7.0,17,0.00,,,0.00,Wunderground v.1.15,2013-03-27 17:48:00,
2013-03-27 11:52:00,57.6,14.3,30.02,NNE,18,2.0,7.0,18,0.00,,,0.00,Wunderground v.1.15,2013-03-27 17:52:00,
2013-03-27 11:54:00,57.6,14.3,30.02,NNE,32,2.0,7.0,18,0.00,,,0.00,Wunderground v.1.15,2013-03-27 17:54:00,
2013-03-27 11:58:00,58.1,12.1,30.02,NNE,32,1.0,7.0,16,0.00,,,0.00,Wunderground v.1.15,2013-03-27 17:58:00,
2013-03-27 12:00:00,58.4,12.3,30.00,NNE,33,1.0,1.0,16,0.00,,,0.00,Wunderground v.1.15,2013-03-27 18:00:00,
2013-03-27 12:02:00,58.7,13.9,30.00,NE,34,1.0,6.0,17,0.00,,,0.00,Wunderground v.1.15,2013-03-27 18:02:00,
2013-03-27 12:06:00,59.6,13.3,30.00,NW,311,1.0,6.0,16,0.00,,,0.00,Wunderground v.1.15,2013-03-27 18:06:00,
2013-03-27 12:08:00,59.9,14.9,30.00,North,351,1.0,6.0,17,0.00,,,0.00,Wunderground v.1.15,2013-03-27 18:08:00,
2013-03-27 12:12:00,60.1,13.7,30.00,NE,44,2.0,6.0,16,0.00,,,0.00,Wunderground v.1.15,2013-03-27 18:12:00,
2013-03-27 12:16:00,59.6,13.3,30.00,NE,39,2.0,6.0,16,0.00,,,0.00,Wunderground v.1.15,2013-03-27 18:16:00,
2013-03-27 12:20:00,59.6,13.3,30.00,North,5,2.0,6.0,16,0.00,,,0.00,Wunderground v.1.15,2013-03-27 18:20:00,
2013-03-27 12:22:00,59.8,13.4,30.00,North,9,2.0,6.0,16,0.00,,,0.00,Wunderground v.1.15,2013-03-27 18:22:00,
2013-03-27 12:28:00,60.7,12.7,30.00,SSE,150,1.0,6.0,15,0.00,,,0.00,Wunderground v.1.15,2013-03-27 18:28:00,
2013-03-27 12:30:00,61.2,13.1,30.00,NNE,13,1.0,7.0,15,0.00,,,0.00,Wunderground v.1.15,2013-03-27 18:30:00,
2013-03-27 12:34:00,61.2,13.1,29.98,NNE,25,1.0,7.0,15,0.00,,,0.00,Wunderground v.1.15,2013-03-27 18:34:00,
2013-03-27 12:36:00,60.9,12.9,29.98,North,11,2.0,7.0,15,0.00,,,0.00,Wunderground v.1.15,2013-03-27 18:36:00,
2013-03-27 12:42:00,60.5,11.0,29.98,NNW,336,2.0,7.0,14,0.00,,,0.00,Wunderground v.1.15,2013-03-27 18:42:00,
2013-03-27 12:46:00,61.3,11.6,29.98,NNE,22,1.0,7.0,14,0.00,,,0.00,Wunderground v.1.15,2013-03-27 18:46:00,
2013-03-27 12:50:00,61.6,11.9,29.98,NNE,26,1.0,7.0,14,0.00,,,0.00,Wunderground v.1.15,2013-03-27 18:50:00,
2013-03-27 12:52:00,61.5,13.4,29.98,WNW,302,1.0,7.0,15,0.00,,,0.00,Wunderground v.1.15,2013-03-27 18:52:00,
2013-03-27 12:56:00,61.6,11.9,29.98,North,5,3.0,7.0,14,0.00,,,0.00,Wunderground v.1.15,2013-03-27 18:56:00,
2013-03-27 12:58:00,61.8,12.0,29.98,WSW,255,3.0,7.0,14,0.00,,,0.00,Wunderground v.1.15,2013-03-27 18:58:00,
2013-03-27 13:00:00,62.0,12.2,29.98,WSW,255,3.0,3.0,14,0.00,,,0.00,Wunderground v.1.15,2013-03-27 19:00:00,
2013-03-27 13:04:00,61.8,12.0,29.97,NNE,26,3.0,6.0,14,0.00,,,0.00,Wunderground v.1.15,2013-03-27 19:04:00,
2013-03-27 13:08:00,61.8,12.0,29.97,NNE,17,2.0,6.0,14,0.00,,,0.00,Wunderground v.1.15,2013-03-27 19:08:00,
2013-03-27 13:14:00,62.1,12.3,29.97,WNW,302,2.0,6.0,14,0.00,,,0.00,Wunderground v.1.15,2013-03-27 19:14:00,
2013-03-27 13:16:00,62.3,12.4,29.99,WNW,293,2.0,7.0,14,0.00,,,0.00,Wunderground v.1.15,2013-03-27 19:16:00,
2013-03-27 13:18:00,62.0,12.2,29.99,NW,310,4.0,7.0,14,0.00,,,0.00,Wunderground v.1.15,2013-03-27 19:18:00,
2013-03-27 13:20:00,61.8,13.6,29.99,WSW,252,4.0,4.0,15,0.00,,,0.00,Wunderground v.1.15,2013-03-27 19:20:00,
2013-03-27 13:22:00,61.8,12.0,29.99,WSW,246,4.0,6.0,14,0.00,,,0.00,Wunderground v.1.15,2013-03-27 19:22:00,
2013-03-27 13:28:00,62.4,12.5,29.99,WSW,244,2.0,6.0,14,0.00,,,0.00,Wunderground v.1.15,2013-03-27 19:28:00,
2013-03-27 13:30:00,62.3,12.4,29.99,SW,236,2.0,11.0,14,0.00,,,0.00,Wunderground v.1.15,2013-03-27 19:30:00,
2013-03-27 13:38:00,62.9,12.9,29.99,South,189,2.0,11.0,14,0.00,,,0.00,Wunderground v.1.15,2013-03-27 19:38:00,
2013-03-27 13:40:00,63.4,11.6,29.99,SW,215,2.0,2.0,13,0.00,,,0.00,Wunderground v.1.15,2013-03-27 19:40:00,
2013-03-27 13:44:00,63.9,12.0,29.99,SSW,199,1.0,11.0,13,0.00,,,0.00,Wunderground v.1.15,2013-03-27 19:44:00,
2013-03-27 13:48:00,63.7,15.1,29.97,NNW,342,1.0,11.0,15,0.00,,,0.00,Wunderground v.1.15,2013-03-27 19:48:00,
2013-03-27 13:54:00,63.5,11.7,29.97,NNE,12,2.0,11.0,13,0.00,,,0.00,Wunderground v.1.15,2013-03-27 19:54:00,
2013-03-27 13:56:00,62.9,11.2,29.97,WNW,290,3.0,11.0,13,0.00,,,0.00,Wunderground v.1.15,2013-03-27 19:56:00,
2013-03-27 14:00:00,62.6,12.7,29.97,West,268,3.0,3.0,14,0.00,,,0.00,Wunderground v.1.15,2013-03-27 20:00:00,
2013-03-27 14:02:00,62.6,11.0,29.97,NW,306,3.0,11.0,13,0.00,,,0.00,Wunderground v.1.15,2013-03-27 20:02:00,
2013-03-27 14:04:00,62.4,12.5,29.97,NW,310,3.0,11.0,14,0.00,,,0.00,Wunderground v.1.15,2013-03-27 20:04:00,
2013-03-27 14:06:00,62.4,10.8,29.97,NNE,12,3.0,11.0,13,0.00,,,0.00,Wunderground v.1.15,2013-03-27 20:06:00,
2013-03-27 14:10:00,62.6,12.7,29.97,WNW,296,2.0,2.0,14,0.00,,,0.00,Wunderground v.1.15,2013-03-27 20:10:00,
2013-03-27 14:12:00,62.9,11.2,29.97,ENE,57,2.0,4.0,13,0.00,,,0.00,Wunderground v.1.15,2013-03-27 20:12:00,
2013-03-27 14:16:00,63.4,13.3,29.98,WNW,298,3.0,11.0,14,0.00,,,0.00,Wunderground v.1.15,2013-03-27 20:16:00,
2013-03-27 14:18:00,63.7,13.5,29.98,WNW,302,3.0,11.0,14,0.00,,,0.00,Wunderground v.1.15,2013-03-27 20:18:00,
2013-03-27 14:24:00,63.7,6.0,29.98,SSW,213,5.0,11.0,10,0.00,,,0.00,Wunderground v.1.15,2013-03-27 20:24:00,
2013-03-27 14:26:00,63.9,12.0,29.98,NW,325,6.0,11.0,13,0.00,,,0.00,Wunderground v.1.15,2013-03-27 20:26:00,
2013-03-27 14:32:00,64.8,10.9,29.96,NNW,339,6.0,13.0,12,0.00,,,0.00,Wunderground v.1.15,2013-03-27 20:32:00,
2013-03-27 14:34:00,64.5,10.7,29.96,WNW,294,6.0,13.0,12,0.00,,,0.00,Wunderground v.1.15,2013-03-27 20:34:00,
2013-03-27 14:36:00,64.3,10.5,29.96,WNW,285,4.0,13.0,12,0.00,,,0.00,Wunderground v.1.15,2013-03-27 20:36:00,
2013-03-27 14:38:00,64.3,8.6,29.96,NW,309,3.0,13.0,11,0.00,,,0.00,Wunderground v.1.15,2013-03-27 20:38:00,
2013-03-27 14:40:00,64.5,8.7,29.96,SW,229,3.0,3.0,11,0.00,,,0.00,Wunderground v.1.15,2013-03-27 20:40:00,
2013-03-27 14:42:00,64.7,8.9,29.96,WNW,300,3.0,13.0,11,0.00,,,0.00,Wunderground v.1.15,2013-03-27 20:42:00,
2013-03-27 14:44:00,64.8,9.0,29.96,WNW,298,3.0,13.0,11,0.00,,,0.00,Wunderground v.1.15,2013-03-27 20:44:00,
2013-03-27 14:48:00,65.0,9.1,29.95,SW,214,4.0,13.0,11,0.00,,,0.00,Wunderground v.1.15,2013-03-27 20:48:00,
2013-03-27 14:50:00,64.7,8.9,29.95,SW,236,4.0,13.0,11,0.00,,,0.00,Wunderground v.1.15,2013-03-27 20:50:00,
2013-03-27 14:54:00,64.5,8.7,29.95,SSW,204,4.0,13.0,11,0.00,,,0.00,Wunderground v.1.15,2013-03-27 20:54:00,
2013-03-27 15:00:00,64.7,8.9,29.95,NW,307,2.0,2.0,11,0.00,,,0.00,Wunderground v.1.15,2013-03-27 21:00:00,
2013-03-27 15:02:00,64.7,8.9,29.95,WSW,249,2.0,12.0,11,0.00,,,0.00,Wunderground v.1.15,2013-03-27 21:02:00,
2013-03-27 15:06:00,64.8,9.0,29.95,NW,319,3.0,12.0,11,0.00,,,0.00,Wunderground v.1.15,2013-03-27 21:06:00,
2013-03-27 15:08:00,64.5,8.7,29.95,NW,311,3.0,12.0,11,0.00,,,0.00,Wunderground v.1.15,2013-03-27 21:08:00,
2013-03-27 15:10:00,64.3,10.5,29.95,SW,236,3.0,3.0,12,0.00,,,0.00,Wunderground v.1.15,2013-03-27 21:10:00,
2013-03-27 15:12:00,64.3,8.6,29.95,WNW,286,3.0,12.0,11,0.00,,,0.00,Wunderground v.1.15,2013-03-27 21:12:00,
2013-03-27 15:14:00,64.2,8.5,29.95,NW,309,3.0,12.0,11,0.00,,,0.00,Wunderground v.1.15,2013-03-27 21:14:00,
2013-03-27 15:18:00,64.0,8.4,29.95,NW,309,1.0,12.0,11,0.00,,,0.00,Wunderground v.1.15,2013-03-27 21:18:00,
2013-03-27 15:24:00,64.7,6.8,29.95,West,267,1.0,12.0,10,0.00,,,0.00,Wunderground v.1.15,2013-03-27 21:24:00,
2013-03-27 15:28:00,64.5,6.6,29.95,NNE,30,2.0,12.0,10,0.00,,,0.00,Wunderground v.1.15,2013-03-27 21:28:00,
2013-03-27 15:30:00,64.2,8.5,29.95,NW,319,2.0,2.0,11,0.00,,,0.00,Wunderground v.1.15,2013-03-27 21:30:00,
2013-03-27 15:34:00,64.3,8.6,29.95,NW,305,2.0,9.0,11,0.00,,,0.00,Wunderground v.1.15,2013-03-27 21:34:00,
2013-03-27 15:36:00,64.3,8.6,29.95,WNW,289,1.0,9.0,11,0.00,,,0.00,Wunderground v.1.15,2013-03-27 21:36:00,
2013-03-27 15:40:00,64.0,10.3,29.95,WSW,249,1.0,9.0,12,0.00,,,0.00,Wunderground v.1.15,2013-03-27 21:40:00,
2013-03-27 15:42:00,64.2,10.5,29.95,West,277,1.0,9.0,12,0.00,,,0.00,Wunderground v.1.15,2013-03-27 21:42:00,
2013-03-27 15:48:00,63.5,9.9,29.95,WSW,239,3.0,9.0,12,0.00,,,0.00,Wunderground v.1.15,2013-03-27 21:48:00,
2013-03-27 15:50:00,63.1,9.6,29.95,SSW,204,4.0,9.0,12,0.00,,,0.00,Wunderground v.1.15,2013-03-27 21:50:00,
2013-03-27 15:54:00,62.6,9.2,29.95,SW,227,4.0,9.0,12,0.00,,,0.00,Wunderground v.1.15,2013-03-27 21:54:00,
2013-03-27 15:56:00,62.6,9.2,29.95,SW,234,4.0,9.0,12,0.00,,,0.00,Wunderground v.1.15,2013-03-27 21:56:00,
2013-03-27 15:58:00,62.6,9.2,29.95,NW,323,3.0,9.0,12,0.00,,,0.00,Wunderground v.1.15,2013-03-27 21:58:00,
2013-03-27 16:02:00,63.1,9.6,29.95,NW,323,1.0,12.0,12,0.00,,,0.00,Wunderground v.1.15,2013-03-27 22:02:00,
2013-03-27 16:04:00,63.4,11.6,29.95,NW,323,1.0,12.0,13,0.00,,,0.00,Wunderground v.1.15,2013-03-27 22:04:00,
2013-03-27 16:08:00,63.9,8.3,29.95,NW,317,2.0,12.0,11,0.00,,,0.00,Wunderground v.1.15,2013-03-27 22:08:00,
2013-03-27 16:10:00,64.0,8.4,29.95,WNW,302,2.0,12.0,11,0.00,,,0.00,Wunderground v.1.15,2013-03-27 22:10:00,
2013-03-27 16:12:00,64.2,8.5,29.95,NNW,341,2.0,12.0,11,0.00,,,0.00,Wunderground v.1.15,2013-03-27 22:12:00,
2013-03-27 16:14:00,64.3,10.5,29.95,NNW,336,3.0,12.0,12,0.00,,,0.00,Wunderground v.1.15,2013-03-27 22:14:00,
2013-03-27 16:16:00,64.5,8.7,29.95,NW,318,2.0,12.0,11,0.00,,,0.00,Wunderground v.1.15,2013-03-27 22:16:00,
2013-03-27 16:22:00,63.5,8.0,29.95,NNW,344,3.0,12.0,11,0.00,,,0.00,Wunderground v.1.15,2013-03-27 22:22:00,
2013-03-27 16:24:00,63.2,9.7,29.95,NNW,340,4.0,12.0,12,0.00,,,0.00,Wunderground v.1.15,2013-03-27 22:24:00,
2013-03-27 16:28:00,62.9,9.4,29.95,NW,309,4.0,12.0,12,0.00,,,0.00,Wunderground v.1.15,2013-03-27 22:28:00,
2013-03-27 16:30:00,62.7,9.3,29.95,North,355,5.0,12.0,12,0.00,,,0.00,Wunderground v.1.15,2013-03-27 22:30:00,
2013-03-27 16:34:00,62.6,7.3,29.96,North,355,4.0,12.0,11,0.00,,,0.00,Wunderground v.1.15,2013-03-27 22:34:00,
2013-03-27 16:38:00,62.9,7.5,29.96,North,355,3.0,12.0,11,0.00,,,0.00,Wunderground v.1.15,2013-03-27 22:38:00,
2013-03-27 16:40:00,63.1,7.7,29.96,North,355,2.0,2.0,11,0.00,,,0.00,Wunderground v.1.15,2013-03-27 22:40:00,
2013-03-27 16:44:00,62.7,7.3,29.96,ENE,61,1.0,12.0,11,0.00,,,0.00,Wunderground v.1.15,2013-03-27 22:44:00,
2013-03-27 16:46:00,62.7,7.3,29.96,ENE,59,2.0,12.0,11,0.00,,,0.00,Wunderground v.1.15,2013-03-27 22:46:00,
2013-03-27 16:48:00,62.7,9.3,29.96,NE,38,2.0,12.0,12,0.00,,,0.00,Wunderground v.1.15,2013-03-27 22:48:00,
2013-03-27 16:50:00,62.7,9.3,29.96,NE,38,2.0,2.0,12,0.00,,,0.00,Wunderground v.1.15,2013-03-27 22:50:00,
2013-03-27 16:52:00,63.2,9.7,29.96,WNW,284,2.0,12.0,12,0.00,,,0.00,Wunderground v.1.15,2013-03-27 22:52:00,
2013-03-27 16:56:00,64.5,12.5,29.96,SW,234,1.0,12.0,13,0.00,,,0.00,Wunderground v.1.15,2013-03-27 22:56:00,
2013-03-27 16:58:00,64.7,8.9,29.96,WSW,237,2.0,12.0,11,0.00,,,0.00,Wunderground v.1.15,2013-03-27 22:58:00,
2013-03-27 17:00:00,64.5,8.7,29.96,SW,234,3.0,3.0,11,0.00,,,0.00,Wunderground v.1.15,2013-03-27 23:00:00,
2013-03-27 17:02:00,64.8,10.9,29.95,SW,234,3.0,10.0,12,0.00,,,0.00,Wunderground v.1.15,2013-03-27 23:02:00,
2013-03-27 17:08:00,65.0,9.1,29.95,South,186,2.0,10.0,11,0.00,,,0.00,Wunderground v.1.15,2013-03-27 23:08:00,
2013-03-27 17:10:00,64.8,9.0,29.95,SW,227,1.0,1.0,11,0.00,,,0.00,Wunderground v.1.15,2013-03-27 23:10:00,
2013-03-27 17:14:00,64.5,8.7,29.95,NE,40,1.0,10.0,11,0.00,,,0.00,Wunderground v.1.15,2013-03-27 23:14:00,
2013-03-27 17:18:00,64.2,8.5,29.97,NW,310,1.0,10.0,11,0.00,,,0.00,Wunderground v.1.15,2013-03-27 23:18:00,
2013-03-27 17:22:00,64.0,8.4,29.97,NW,310,1.0,10.0,11,0.00,,,0.00,Wunderground v.1.15,2013-03-27 23:22:00,
2013-03-27 17:24:00,63.9,10.2,29.97,NW,309,1.0,10.0,12,0.00,,,0.00,Wunderground v.1.15,2013-03-27 23:24:00,
2013-03-27 17:28:00,64.3,10.5,29.97,NW,310,1.0,10.0,12,0.00,,,0.00,Wunderground v.1.15,2013-03-27 23:28:00,
2013-03-27 17:32:00,64.5,8.7,29.97,NW,325,1.0,5.0,11,0.00,,,0.00,Wunderground v.1.15,2013-03-27 23:32:00,
2013-03-27 17:38:00,63.9,10.2,29.97,NNW,340,2.0,5.0,12,0.00,,,0.00,Wunderground v.1.15,2013-03-27 23:38:00,
2013-03-27 17:40:00,63.9,8.3,29.97,WSW,253,3.0,3.0,11,0.00,,,0.00,Wunderground v.1.15,2013-03-27 23:40:00,
2013-03-27 17:46:00,63.5,8.0,29.98,WSW,257,2.0,7.0,11,0.00,,,0.00,Wunderground v.1.15,2013-03-27 23:46:00,
2013-03-27 17:52:00,63.2,7.7,29.98,SW,230,4.0,10.0,11,0.00,,,0.00,Wunderground v.1.15,2013-03-27 23:52:00,
2013-03-27 17:54:00,63.1,7.7,29.98,SW,233,6.0,10.0,11,0.00,,,0.00,Wunderground v.1.15,2013-03-27 23:54:00,
2013-03-27 17:58:00,63.1,7.7,29.98,SW,222,7.0,10.0,11,0.00,,,0.00,Wunderground v.1.15,2013-03-27 23:58:00,
2013-03-27 18:04:00,63.1,7.7,29.99,WSW,242,5.0,17.0,11,0.00,,,0.00,Wunderground v.1.15,2013-03-28 00:04:00,
2013-03-27 18:10:00,63.1,7.7,29.99,SW,236,2.0,17.0,11,0.00,,,0.00,Wunderground v.1.15,2013-03-28 00:10:00,
2013-03-27 18:12:00,63.1,7.7,29.99,SW,227,2.0,17.0,11,0.00,,,0.00,Wunderground v.1.15,2013-03-28 00:12:00,
2013-03-27 18:14:00,63.1,5.6,29.99,SSW,192,3.0,17.0,10,0.00,,,0.00,Wunderground v.1.15,2013-03-28 00:14:00,
2013-03-27 18:16:00,63.1,7.7,30.01,SW,221,3.0,17.0,11,0.00,,,0.00,Wunderground v.1.15,2013-03-28 00:16:00,
2013-03-27 18:20:00,62.7,7.3,30.01,SW,231,4.0,17.0,11,0.00,,,0.00,Wunderground v.1.15,2013-03-28 00:20:00,
2013-03-27 18:22:00,62.6,7.3,30.01,WSW,238,5.0,17.0,11,0.00,,,0.00,Wunderground v.1.15,2013-03-28 00:22:00,
2013-03-27 18:28:00,62.3,7.0,30.01,SW,233,5.0,17.0,11,0.00,,,0.00,Wunderground v.1.15,2013-03-28 00:28:00,
2013-03-27 18:30:00,62.1,6.9,30.01,SW,232,6.0,6.0,11,0.00,,,0.00,Wunderground v.1.15,2013-03-28 00:30:00,
2013-03-27 18:34:00,62.0,8.7,30.01,SW,233,4.0,13.0,12,0.00,,,0.00,Wunderground v.1.15,2013-03-28 00:34:00,
2013-03-27 18:40:00,61.8,8.6,30.01,WSW,238,3.0,13.0,12,0.00,,,0.00,Wunderground v.1.15,2013-03-28 00:40:00,
2013-03-27 18:42:00,61.8,8.6,30.01,WSW,241,3.0,13.0,12,0.00,,,0.00,Wunderground v.1.15,2013-03-28 00:42:00,
2013-03-27 18:46:00,61.5,8.3,30.01,WSW,241,4.0,13.0,12,0.00,,,0.00,Wunderground v.1.15,2013-03-28 00:46:00,
2013-03-27 18:50:00,61.2,8.1,30.01,SW,232,4.0,13.0,12,0.00,,,0.00,Wunderground v.1.15,2013-03-28 00:50:00,
2013-03-27 18:54:00,61.0,9.7,30.01,WSW,244,4.0,13.0,13,0.00,,,0.00,Wunderground v.1.15,2013-03-28 00:54:00,
2013-03-27 19:00:00,60.7,7.7,30.03,SW,234,4.0,12.0,12,0.00,,,0.00,Wunderground v.1.15,2013-03-28 01:00:00,
2013-03-27 19:02:00,60.5,7.5,30.03,SW,226,4.0,12.0,12,0.00,,,0.00,Wunderground v.1.15,2013-03-28 01:02:00,
2013-03-27 19:04:00,60.5,7.5,30.03,SSW,209,4.0,12.0,12,0.00,,,0.00,Wunderground v.1.15,2013-03-28 01:04:00,
2013-03-27 19:08:00,60.2,7.3,30.03,SW,234,5.0,12.0,12,0.00,,,0.00,Wunderground v.1.15,2013-03-28 01:08:00,
2013-03-27 19:10:00,60.1,7.2,30.03,WSW,239,5.0,12.0,12,0.00,,,0.00,Wunderground v.1.15,2013-03-28 01:10:00,
2013-03-27 19:12:00,59.9,7.1,30.03,SW,235,5.0,12.0,12,0.00,,,0.00,Wunderground v.1.15,2013-03-28 01:12:00,
2013-03-27 19:18:00,59.5,8.5,30.01,SW,228,5.0,12.0,13,0.00,,,0.00,Wunderground v.1.15,2013-03-28 01:18:00,
2013-03-27 19:24:00,59.2,8.3,30.01,WSW,237,5.0,12.0,13,0.00,,,0.00,Wunderground v.1.15,2013-03-28 01:24:00,
2013-03-27 19:28:00,58.9,8.1,30.01,WSW,238,4.0,12.0,13,0.00,,,0.00,Wunderground v.1.15,2013-03-28 01:28:00,
2013-03-27 19:30:00,58.7,7.9,30.01,WSW,237,4.0,4.0,13,0.00,,,0.00,Wunderground v.1.15,2013-03-28 01:30:00,
2013-03-27 19:34:00,58.4,7.7,30.03,SSW,196,3.0,10.0,13,0.00,,,0.00,Wunderground v.1.15,2013-03-28 01:34:00,
2013-03-27 19:36:00,58.3,7.6,30.03,SW,221,3.0,10.0,13,0.00,,,0.00,Wunderground v.1.15,2013-03-28 01:36:00,
2013-03-27 19:40:00,58.1,7.4,30.03,SW,232,4.0,10.0,13,0.00,,,0.00,Wunderground v.1.15,2013-03-28 01:40:00,
2013-03-27 19:42:00,58.0,7.3,30.03,WSW,243,4.0,10.0,13,0.00,,,0.00,Wunderground v.1.15,2013-03-28 01:42:00,
2013-03-27 19:48:00,57.6,7.0,30.03,SW,234,4.0,10.0,13,0.00,,,0.00,Wunderground v.1.15,2013-03-28 01:48:00,
2013-03-27 19:52:00,57.5,8.6,30.03,SW,225,4.0,10.0,14,0.00,,,0.00,Wunderground v.1.15,2013-03-28 01:52:00,
2013-03-27 19:54:00,57.5,8.6,30.03,SW,230,4.0,10.0,14,0.00,,,0.00,Wunderground v.1.15,2013-03-28 01:54:00,
2013-03-27 19:56:00,57.3,8.4,30.03,WSW,240,4.0,10.0,14,0.00,,,0.00,Wunderground v.1.15,2013-03-28 01:56:00,
2013-03-27 20:00:00,57.0,8.2,30.05,WSW,251,4.0,4.0,14,0.00,,,0.00,Wunderground v.1.15,2013-03-28 02:00:00,
2013-03-27 20:02:00,56.9,8.1,30.05,WSW,242,4.0,8.0,14,0.00,,,0.00,Wunderground v.1.15,2013-03-28 02:02:00,
2013-03-27 20:06:00,56.5,9.3,30.05,SW,229,4.0,8.0,15,0.00,,,0.00,Wunderground v.1.15,2013-03-28 02:06:00,
2013-03-27 20:08:00,56.3,9.2,30.05,WSW,244,4.0,8.0,15,0.00,,,0.00,Wunderground v.1.15,2013-03-28 02:08:00,
2013-03-27 20:10:00,56.2,9.1,30.05,SW,230,4.0,9.0,15,0.00,,,0.00,Wunderground v.1.15,2013-03-28 02:10:00,
2013-03-27 20:12:00,56.0,8.9,30.05,WSW,238,4.0,9.0,15,0.00,,,0.00,Wunderground v.1.15,2013-03-28 02:12:00,
2013-03-27 20:14:00,55.9,8.8,30.05,WSW,242,3.0,9.0,15,0.00,,,0.00,Wunderground v.1.15,2013-03-28 02:14:00,
2013-03-27 20:18:00,55.9,8.8,29.97,SW,224,4.0,9.0,15,0.00,,,0.00,Wunderground v.1.15,2013-03-28 02:18:00,
2013-03-27 20:20:00,55.9,8.8,29.97,SW,224,3.0,3.0,15,0.00,,,0.00,Wunderground v.1.15,2013-03-28 02:20:00,
2013-03-27 20:24:00,55.7,8.7,29.97,WSW,237,3.0,8.0,15,0.00,,,0.00,Wunderground v.1.15,2013-03-28 02:24:00,
2013-03-27 20:26:00,55.7,8.7,29.97,SSW,200,3.0,8.0,15,0.00,,,0.00,Wunderground v.1.15,2013-03-28 02:26:00,
2013-03-27 20:28:00,55.6,8.6,29.97,SW,223,3.0,8.0,15,0.00,,,0.00,Wunderground v.1.15,2013-03-28 02:28:00,
2013-03-27 20:34:00,55.3,8.4,29.99,South,189,2.0,10.0,15,0.00,,,0.00,Wunderground v.1.15,2013-03-28 02:34:00,
2013-03-27 20:36:00,55.0,9.6,29.99,South,189,1.0,10.0,16,0.00,,,0.00,Wunderground v.1.15,2013-03-28 02:36:00,
2013-03-27 20:42:00,53.5,9.7,29.99,South,189,0.0,10.0,17,0.00,,,0.00,Wunderground v.1.15,2013-03-28 02:42:00,
2013-03-27 20:44:00,53.1,9.4,29.99,South,189,0.0,10.0,17,0.00,,,0.00,Wunderground v.1.15,2013-03-28 02:44:00,
2013-03-27 20:50:00,52.3,10.0,30.01,South,189,0.0,10.0,18,0.00,,,0.00,Wunderground v.1.15,2013-03-28 02:50:00,
2013-03-27 20:52:00,52.3,10.0,30.01,South,189,0.0,10.0,18,0.00,,,0.00,Wunderground v.1.15,2013-03-28 02:52:00,
2013-03-27 20:56:00,52.2,9.9,30.01,East,101,0.0,10.0,18,0.00,,,0.00,Wunderground v.1.15,2013-03-28 02:56:00,
2013-03-27 20:58:00,52.2,9.9,30.01,ESE,119,0.0,10.0,18,0.00,,,0.00,Wunderground v.1.15,2013-03-28 02:58:00,
2013-03-27 21:00:00,52.2,9.9,30.02,ESE,104,0.0,4.0,18,0.00,,,0.00,Wunderground v.1.15,2013-03-28 03:00:00,
2013-03-27 21:04:00,52.0,9.7,30.02,ESE,107,1.0,4.0,18,0.00,,,0.00,Wunderground v.1.15,2013-03-28 03:04:00,
2013-03-27 21:06:00,52.0,9.7,30.02,ESE,107,1.0,4.0,18,0.00,,,0.00,Wunderground v.1.15,2013-03-28 03:06:00,
2013-03-27 21:08:00,52.0,9.7,30.02,ESE,107,1.0,4.0,18,0.00,,,0.00,Wunderground v.1.15,2013-03-28 03:08:00,
2013-03-27 21:10:00,51.9,9.6,30.02,ESE,105,1.0,1.0,18,0.00,,,0.00,Wunderground v.1.15,2013-03-28 03:10:00,
2013-03-27 21:14:00,51.9,9.6,30.02,ESE,106,1.0,4.0,18,0.00,,,0.00,Wunderground v.1.15,2013-03-28 03:14:00,
2013-03-27 21:18:00,51.7,9.5,29.99,ESE,105,0.0,4.0,18,0.00,,,0.00,Wunderground v.1.15,2013-03-28 03:18:00,
2013-03-27 21:24:00,51.3,10.4,29.99,ESE,106,0.0,4.0,19,0.00,,,0.00,Wunderground v.1.15,2013-03-28 03:24:00,
2013-03-27 21:26:00,51.3,10.4,29.99,ESE,106,0.0,4.0,19,0.00,,,0.00,Wunderground v.1.15,2013-03-28 03:26:00,
2013-03-27 21:30:00,51.1,10.2,29.99,SE,144,0.0,4.0,19,0.00,,,0.00,Wunderground v.1.15,2013-03-28 03:30:00,
2013-03-27 21:32:00,51.1,10.2,30.00,SSE,157,1.0,4.0,19,0.00,,,0.00,Wunderground v.1.15,2013-03-28 03:32:00,
2013-03-27 21:36:00,51.6,8.1,30.00,SE,140,2.0,4.0,17,0.00,,,0.00,Wunderground v.1.15,2013-03-28 03:36:00,
2013-03-27 21:38:00,52.3,8.7,30.00,South,175,3.0,4.0,17,0.00,,,0.00,Wunderground v.1.15,2013-03-28 03:38:00,
2013-03-27 21:40:00,52.8,9.1,30.00,SSE,168,3.0,3.0,17,0.00,,,0.00,Wunderground v.1.15,2013-03-28 03:40:00,
2013-03-27 21:44:00,52.9,9.2,30.00,SE,144,3.0,4.0,17,0.00,,,0.00,Wunderground v.1.15,2013-03-28 03:44:00,
2013-03-27 21:46:00,52.6,8.9,29.99,SSE,156,2.0,4.0,17,0.00,,,0.00,Wunderground v.1.15,2013-03-28 03:46:00,
2013-03-27 21:48:00,52.5,10.1,29.99,SSE,155,2.0,4.0,18,0.00,,,0.00,Wunderground v.1.15,2013-03-28 03:48:00,
2013-03-27 21:50:00,52.3,8.7,29.99,South,177,2.0,4.0,17,0.00,,,0.00,Wunderground v.1.15,2013-03-28 03:50:00,
2013-03-27 21:54:00,52.2,9.9,29.99,SSE,167,1.0,4.0,18,0.00,,,0.00,Wunderground v.1.15,2013-03-28 03:54:00,
2013-03-27 21:56:00,52.2,8.6,29.99,South,185,1.0,5.0,17,0.00,,,0.00,Wunderground v.1.15,2013-03-28 03:56:00,
2013-03-27 21:58:00,52.2,8.6,29.99,South,180,2.0,5.0,17,0.00,,,0.00,Wunderground v.1.15,2013-03-28 03:58:00,
2013-03-27 22:01:00,52.0,9.7,30.01,SSE,148,1.0,1.0,18,0.00,,,0.00,Wunderground v.1.15,2013-03-28 04:01:00,
2013-03-27 22:02:00,52.0,9.7,30.01,SE,142,1.0,2.0,18,0.00,,,0.00,Wunderground v.1.15,2013-03-28 04:02:00,
2013-03-27 22:06:00,51.9,9.6,30.01,SE,126,1.0,6.0,18,0.00,,,0.00,Wunderground v.1.15,2013-03-28 04:06:00,
2013-03-27 22:08:00,51.7,9.5,30.01,SE,126,1.0,6.0,18,0.00,,,0.00,Wunderground v.1.15,2013-03-28 04:08:00,
2013-03-27 22:10:00,51.6,10.6,30.01,SE,126,0.0,6.0,19,0.00,,,0.00,Wunderground v.1.15,2013-03-28 04:10:00,
2013-03-27 22:12:00,51.3,10.4,30.01,SE,126,0.0,6.0,19,0.00,,,0.00,Wunderground v.1.15,2013-03-28 04:12:00,
2013-03-27 22:14:00,51.0,11.3,30.01,SE,126,0.0,6.0,20,0.00,,,0.00,Wunderground v.1.15,2013-03-28 04:14:00,
2013-03-27 22:18:00,50.2,11.7,29.99,SE,125,0.0,6.0,21,0.00,,,0.00,Wunderground v.1.15,2013-03-28 04:18:00,
2013-03-27 22:24:00,49.2,11.9,29.99,NE,34,0.0,6.0,22,0.00,,,0.00,Wunderground v.1.15,2013-03-28 04:24:00,
2013-03-27 22:26:00,49.2,9.8,29.99,NNE,33,1.0,6.0,20,0.00,,,0.00,Wunderground v.1.15,2013-03-28 04:26:00,
2013-03-27 22:28:00,49.4,12.1,29.99,NNE,33,1.0,6.0,22,0.00,,,0.00,Wunderground v.1.15,2013-03-28 04:28:00,
2013-03-27 22:32:00,49.1,10.8,30.01,NE,34,0.0,3.0,21,0.00,,,0.00,Wunderground v.1.15,2013-03-28 04:32:00,
2013-03-27 22:38:00,48.6,11.4,30.01,NE,34,0.0,3.0,22,0.00,,,0.00,Wunderground v.1.15,2013-03-28 04:38:00,
2013-03-27 22:40:00,48.5,12.3,30.01,NE,34,0.0,3.0,23,0.00,,,0.00,Wunderground v.1.15,2013-03-28 04:40:00,
2013-03-27 22:44:00,47.9,11.8,30.01,NE,34,0.0,3.0,23,0.00,,,0.00,Wunderground v.1.15,2013-03-28 04:44:00,
2013-03-27 22:46:00,47.6,11.6,30.02,NE,36,0.0,3.0,23,0.00,,,0.00,Wunderground v.1.15,2013-03-28 04:46:00,
2013-03-27 22:48:00,47.4,11.4,30.02,NE,36,0.0,3.0,23,0.00,,,0.00,Wunderground v.1.15,2013-03-28 04:48:00,
2013-03-27 22:52:00,47.1,12.1,30.02,NE,36,0.0,3.0,24,0.00,,,0.00,Wunderground v.1.15,2013-03-28 04:52:00,
2013-03-27 22:54:00,47.0,12.0,30.02,NE,36,0.0,3.0,24,0.00,,,0.00,Wunderground v.1.15,2013-03-28 04:54:00,
2013-03-27 22:56:00,46.8,11.8,30.02,NE,36,0.0,3.0,24,0.00,,,0.00,Wunderground v.1.15,2013-03-28 04:56:00,
2013-03-27 23:02:00,46.4,12.4,30.02,NE,36,0.0,2.0,25,0.00,,,0.00,Wunderground v.1.15,2013-03-28 05:02:00,
2013-03-27 23:04:00,46.2,12.3,30.02,NE,36,0.0,2.0,25,0.00,,,0.00,Wunderground v.1.15,2013-03-28 05:04:00,
2013-03-27 23:06:00,46.0,12.1,30.02,NE,36,0.0,2.0,25,0.00,,,0.00,Wunderground v.1.15,2013-03-28 05:06:00,
2013-03-27 23:08:00,45.8,11.9,30.02,NE,36,0.0,2.0,25,0.00,,,0.00,Wunderground v.1.15,2013-03-28 05:08:00,
2013-03-27 23:10:00,45.7,11.8,30.02,NE,36,0.0,2.0,25,0.00,,,0.00,Wunderground v.1.15,2013-03-28 05:10:00,
2013-03-27 23:12:00,45.4,12.5,30.02,NE,36,0.0,2.0,26,0.00,,,0.00,Wunderground v.1.15,2013-03-28 05:12:00,
2013-03-27 23:14:00,45.2,12.3,30.02,NE,36,0.0,2.0,26,0.00,,,0.00,Wunderground v.1.15,2013-03-28 05:14:00,
2013-03-27 23:18:00,44.6,12.6,30.01,NE,37,0.0,2.0,27,0.00,,,0.00,Wunderground v.1.15,2013-03-28 05:18:00,
2013-03-27 23:20:00,44.3,12.4,30.01,NE,38,0.0,2.0,27,0.00,,,0.00,Wunderground v.1.15,2013-03-28 05:20:00,
2013-03-27 23:24:00,44.1,12.2,30.01,SE,126,0.0,2.0,27,0.00,,,0.00,Wunderground v.1.15,2013-03-28 05:24:00,
2013-03-27 23:26:00,44.1,11.3,30.01,SE,126,0.0,2.0,26,0.00,,,0.00,Wunderground v.1.15,2013-03-28 05:26:00,
2013-03-27 23:30:00,44.3,12.4,30.01,SE,126,0.0,3.0,27,0.00,,,0.00,Wunderground v.1.15,2013-03-28 05:30:00,
2013-03-27 23:32:00,44.3,11.5,30.02,SE,126,0.0,3.0,26,0.00,,,0.00,Wunderground v.1.15,2013-03-28 05:32:00,
2013-03-27 23:38:00,44.6,11.8,30.02,ESE,105,1.0,3.0,26,0.00,,,0.00,Wunderground v.1.15,2013-03-28 05:38:00,
2013-03-27 23:40:00,44.6,11.8,30.02,ESE,105,1.0,1.0,26,0.00,,,0.00,Wunderground v.1.15,2013-03-28 05:40:00,
2013-03-27 23:44:00,44.5,11.7,30.02,ESE,105,1.0,3.0,26,0.00,,,0.00,Wunderground v.1.15,2013-03-28 05:44:00,
2013-03-27 23:48:00,44.3,11.5,30.01,ESE,106,0.0,3.0,26,0.00,,,0.00,Wunderground v.1.15,2013-03-28 05:48:00,
2013-03-27 23:50:00,44.2,12.3,30.01,ESE,106,0.0,3.0,27,0.00,,,0.00,Wunderground v.1.15,2013-03-28 05:50:00,
2013-03-27 23:54:00,43.9,12.0,30.01,ESE,106,0.0,3.0,27,0.00,,,0.00,Wunderground v.1.15,2013-03-28 05:54:00,
2013-03-27 23:58:00,43.5,11.7,30.01,ESE,106,0.0,3.0,27,0.00,,,0.00,Wunderground v.1.15,2013-03-28 05:58:00,